| time (UTC) | temp F | wind direction | speed MPH | gust MPH | rain 1hr in | rain 24hr in | rain mn in | humidity % | barometer mb |
| 20260504231122 | 80 | 134 | 8.0 | 15.0 | 0.00 | 0.00 | 0.00 | 78 | 1009.1 |
| 20260504225626 | 80 | 105 | 8.0 | 17.0 | 0.00 | 0.00 | 0.00 | 78 | 1009.1 |
| 20260504224124 | 80 | 182 | 12.0 | 20.0 | 0.00 | 0.00 | 0.00 | 76 | 1009.0 |
| 20260504222626 | 80 | 149 | 8.0 | 14.0 | 0.00 | 0.00 | 0.00 | 76 | 1008.9 |
| 20260504221125 | 81 | 113 | 9.0 | 16.0 | 0.00 | 0.00 | 0.00 | 76 | 1009.0 |
| 20260504215624 | 81 | 108 | 11.0 | 17.0 | 0.00 | 0.00 | 0.00 | 74 | 1008.9 |
| 20260504214142 | 82 | 95 | 9.0 | 20.0 | 0.00 | 0.00 | 0.00 | 74 | 1009.2 |
| 20260504212621 | 82 | 111 | 8.0 | 15.0 | 0.00 | 0.00 | 0.00 | 75 | 1009.4 |
| 20260504211118 | 81 | 131 | 9.0 | 15.0 | 0.00 | 0.00 | 0.00 | 74 | 1009.8 |
| 20260504205621 | 81 | 125 | 8.0 | 15.0 | 0.00 | 0.00 | 0.00 | 75 | 1009.8 |
| 20260504204140 | 81 | 151 | 10.0 | 17.0 | 0.00 | 0.00 | 0.00 | 74 | 1009.9 |
| 20260504202635 | 82 | 95 | 7.0 | 16.0 | 0.00 | 0.00 | 0.00 | 74 | 1009.9 |
| 20260504201124 | 82 | 96 | 5.0 | 14.0 | 0.00 | 0.00 | 0.00 | 74 | 1010.1 |
| 20260504195623 | 81 | 137 | 9.0 | 14.0 | 0.00 | 0.00 | 0.00 | 74 | 1010.6 |
| 20260504194124 | 82 | 127 | 7.0 | 12.0 | 0.00 | 0.00 | 0.00 | 73 | 1010.4 |
| 20260504192624 | 82 | 128 | 7.0 | 16.0 | 0.00 | 0.00 | 0.00 | 73 | 1010.6 |
| 20260504191139 | 82 | 80 | 8.0 | 14.0 | 0.00 | 0.00 | 0.00 | 74 | 1010.6 |
| 20260504185641 | 82 | 167 | 4.0 | 14.0 | 0.00 | 0.00 | 0.00 | 74 | 1011.0 |
| 20260504184119 | 82 | 99 | 9.0 | 18.0 | 0.00 | 0.00 | 0.00 | 73 | 1011.0 |
| 20260504182638 | 82 | 188 | 5.0 | 16.0 | 0.00 | 0.00 | 0.00 | 73 | 1011.3 |
| 20260504181142 | 82 | 144 | 7.0 | 17.0 | 0.00 | 0.00 | 0.00 | 71 | 1011.1 |
| 20260504175620 | 81 | 104 | 5.0 | 12.0 | 0.00 | 0.00 | 0.00 | 72 | 1011.3 |
| 20260504174118 | 81 | 158 | 8.0 | 15.0 | 0.00 | 0.00 | 0.00 | 72 | 1011.6 |
| 20260504172619 | 82 | 119 | 6.0 | 16.0 | 0.00 | 0.00 | 0.00 | 71 | 1011.9 |
| 20260504171136 | 81 | 136 | 7.0 | 15.0 | 0.00 | 0.00 | 0.00 | 71 | 1011.8 |
| 20260504151124 | 78 | 145 | 8.0 | 16.0 | 0.00 | 0.00 | 0.00 | 76 | 1012.9 |
| 20260504141138 | 77 | 109 | 9.0 | 17.0 | 0.00 | 0.00 | 0.00 | 80 | 1012.8 |
| 20260504081134 | 68 | 119 | 0.0 | 1.0 | 0.00 | 0.00 | 0.00 | 92 | 1014.0 |
| 20260504045627 | 67 | 111 | 0.0 | 0.0 | 0.00 | 0.00 | 0.00 | 89 | 1016.4 |
| 20260504044123 | 68 | 111 | 0.0 | 0.0 | 0.00 | 0.00 | 0.00 | 88 | 1016.4 |
| 20260504042622 | 68 | 111 | 0.0 | 0.0 | 0.00 | 0.00 | 0.00 | 87 | 1016.7 |
| 20260504041121 | 68 | 111 | 0.0 | 0.0 | 0.00 | 0.00 | 0.00 | 87 | 1016.6 |
| 20260504035621 | 69 | 111 | 0.0 | 0.0 | 0.00 | 0.00 | 0.00 | 86 | 1016.5 |
| 20260504034143 | 69 | 111 | 0.0 | 0.0 | 0.00 | 0.00 | 0.00 | 86 | 1016.5 |
| 20260504032657 | 69 | 111 | 1.0 | 3.0 | 0.00 | 0.00 | 0.00 | 85 | 1016.3 |
| 20260504031131 | 69 | 103 | 1.0 | 2.0 | 0.00 | 0.00 | 0.00 | 85 | 1016.3 |
| 20260504025623 | 69 | 103 | 2.0 | 3.0 | 0.00 | 0.00 | 0.00 | 84 | 1016.3 |
| 20260504024124 | 69 | 104 | 2.0 | 4.0 | 0.00 | 0.00 | 0.00 | 82 | 1016.3 |
| 20260504022622 | 70 | 104 | 1.0 | 4.0 | 0.00 | 0.00 | 0.00 | 82 | 1016.1 |
| 20260504021142 | 70 | 104 | 2.0 | 3.0 | 0.00 | 0.00 | 0.00 | 81 | 1016.0 |
| 20260504015620 | 71 | 92 | 1.0 | 3.0 | 0.00 | 0.00 | 0.00 | 79 | 1015.9 |
| 20260504014118 | 71 | 98 | 2.0 | 4.0 | 0.00 | 0.00 | 0.00 | 78 | 1016.0 |
| 20260504012642 | 72 | 87 | 3.0 | 6.0 | 0.00 | 0.00 | 0.00 | 77 | 1016.1 |
| 20260504011134 | 73 | 94 | 3.0 | 9.0 | 0.00 | 0.00 | 0.00 | 75 | 1016.0 |
| 20260504005622 | 73 | 80 | 6.0 | 10.0 | 0.00 | 0.00 | 0.00 | 74 | 1016.0 |
| 20260504004124 | 74 | 91 | 4.0 | 12.0 | 0.00 | 0.00 | 0.00 | 72 | 1015.8 |
| 20260504002645 | 75 | 96 | 5.0 | 13.0 | 0.00 | 0.00 | 0.00 | 71 | 1015.5 |
| 20260504001143 | 75 | 82 | 6.0 | 10.0 | 0.00 | 0.00 | 0.00 | 70 | 1015.5 |
| 20260503235624 | 76 | 88 | 3.0 | 13.0 | 0.00 | 0.00 | 0.00 | 68 | 1015.6 |
| 20260503234121 | 77 | 94 | 6.0 | 12.0 | 0.00 | 0.00 | 0.00 | 67 | 1015.6 |
| 20260503232640 | 77 | 70 | 7.0 | 13.0 | 0.00 | 0.00 | 0.00 | 66 | 1015.7 |